Weather in Novorozhdestvenskoye

Russia / Tomsk District     56°29′22″N   86°00′04″E
temp.,
°C
wind,
m/s
gust,
m/s
humid.,
%
clouds,
%
prec.,
mm/h
press.,
hPa
HPBL,
m
28 september, tue
tue2801:00+3n2386100 0.0 102497
04:00+3nnw1189100 0.0 102314
07:00+3n239022 0.0 102297
10:00+5n23745 0.0 1022323
13:00+8nne125533 0.0 10211307
16:00+9ne114978 0.1 10201446
19:00+6n116393 0.1 102110
22:00+5ene117099 0.0 102114
29 september, wed
wed2901:00+2ene117824 0.0 102010
04:00+1e128817 0.0 101912
07:000ene2688100 0.0 1018131
10:00+4e496893 0.0 1016460
13:00+8e575173 0.0 10151075
16:00+9e585098 0.0 10131271
19:00+7ene41059100 0.0 1013450
22:00+5ene4970100 0.0 1012372
30 september, thu
thu3001:00+5e3775100 0.0 1012289
04:00+5e2488100 0.0 1011126
07:00+5ese1297100 0.0 101173
10:00+5ssw4681100 0.2 1011794
13:00+4ssw4784100 0.2 1011867
16:00+4s3796100 0.2 1011883
19:00+3ssw3797100 0.9 1010552
22:00+2sw3898100 0.6 1010449
1 october, fri
fri101:00+1wsw4997100 1.2 1010514
04:00+2w5997100 0.3 1009797
07:00+2wsw3798100 0.4 1009366
10:00+2wsw2698100 0.1 1008470
13:00+2wsw2492100 0.3 1008430
16:00+2wsw2496100 0.3 1009302
19:00+2wsw2697100 0.6 1010418
22:00+2wsw3797100 0.2 1011347
2 october, sat
sat201:00+1sw3897100 0.3 1012351
04:00+2sw3797100 0.1 1012615
07:00+1ssw3898100 0.2 1013386
10:00+1sw3797100 0.1 1014420
13:00+2wsw3591100 0.4 1015696
16:00+2w2497100 0.7 1017267
19:00+1wsw1293100 1.3 1019105
22:000sw259483 0.3 1021173